sat.trackr.live / text

‹ back to catalog

STARLINK-1876

NORAD 47161 · 2020-088AR

PAYLOAD ACTIVE UNKNOWN

§ Identity

Operator
Country
US
Launch date
2020-11-25
Launch site
AFETR
Launch vehicle
Mass (kg)
RCS (m²)

Purposes: comms

External: N2YO · Heavens-Above · Gunter

§ Orbital elements

Epoch: 2026-07-06T19:16:22.973952Z

Period
87.45 min
Inclination
53.0260°
Eccentricity
0.0010951
Mean motion
16.46603021 rev/d
Perigee alt
141.1 km
Apogee alt
155.4 km
Semi-major
6,526.4 km
B*
2.3908e-4
RAAN
33.0968°
Arg perigee
261.7412°
Mean anomaly
98.2395°
Rev number
31,110

§ Raw data

STARLINK-18761 47161U 20088AR  26187.80304368  .12839268  12520-4  23908-3 0  99912 47161  53.0260  33.0968 0010951 261.7412  98.2395 16.46603021311106

JSON: /api/v1/satellites/47161 · /tle

For live sub-satellite position, see the globe view (requires WebGL).

§ Visibility from observer

Set your observer location to see the next 7 days of passes ≥ 10°. The values pass through the URL so the page stays shareable.

No JS? Fill the form by hand. The geolocation button needs JavaScript.